Minden, Australia

2:53 AM AEST on February 26, 2017 (GMT +1000)
Minden

Weather History for WYAMB - December, 2013

Change the Weather History Date:

Monday, December 30, 2013

  Actual Average Record
Temperature  
Mean Temperature 78 °F -  
Max Temperature 86 °F - - ()
Min Temperature 69 °F - - ()
Cooling Degree Days 12    
Growing Degree Days 28 (Base 50)    
Moisture  
Dew Point 64 °F    
Average Humidity 67    
Maximum Humidity 94    
Minimum Humidity 48    
Precipitation  
Precipitation 0.00 in - - ()
Sea Level Pressure  
Sea Level Pressure 29.84 in    
Wind  
Wind Speed 6 mph ()    
Max Wind Speed 20 mph    
Max Gust Speed -    
Visibility 6.2 miles    
Events      
T = Trace of Precipitation, MM = Missing Value Source: Averaged Metar Reports

Daily Weather History Graph

Daily Weather History Graph

Search for Another Location

Airport or City:

Trip Planner

Search our weather history database for the weather conditions in past years. The results will help you decide how hot, cold, wet, or windy it might be!

Date:

Astronomy

Dec. 30, 2013 Rise Set
Actual Time 4:56 AM AEST 6:48 PM AEST
Civil Twilight 4:29 AM AEST 7:14 PM AEST
Nautical Twilight 3:57 AM AEST 7:46 PM AEST
Astronomical Twilight 3:23 AM AEST 8:20 PM AEST
Moon 2:29 AM AEST (12/30) 4:21 PM AEST (12/30)
Length of Visible Light 14h 45m
Length of Day
13h 51m
Waning Crescent, 8% of the Moon is Illuminated
Dec 30
Waning Crescent
Jan 1
New
Jan 8
First Quarter
Jan 16
Full
Jan 24
Last Quarter

Hourly Weather History & Observations

Time (AEST) Temp. Heat Index Dew Point Humidity Pressure Visibility Wind Dir Wind Speed Gust Speed Precip Events Conditions
12:00 AM 69.8 °F - 68.0 °F 94% 29.86 in 6.2 mi WSW 3.5 mph - N/A   Unknown
12:30 AM 71.6 °F - 68.0 °F 88% 29.86 in 6.2 mi North 2.3 mph - N/A   Unknown
1:00 AM 71.6 °F - 68.0 °F 88% 29.83 in 6.2 mi Calm Calm - N/A   Unknown
1:30 AM 69.8 °F - 68.0 °F 94% 29.83 in 6.2 mi South 2.3 mph - N/A   Unknown
2:00 AM 69.8 °F - 68.0 °F 94% 29.86 in 6.2 mi East 5.8 mph - N/A   Unknown
2:30 AM 69.8 °F - 66.2 °F 88% 29.86 in 6.2 mi East 8.1 mph - N/A   Unknown
3:00 AM 69.8 °F - 66.2 °F 88% 29.86 in 6.2 mi SE 8.1 mph - N/A   Unknown
3:30 AM 71.6 °F - 64.4 °F 78% 29.86 in 6.2 mi East 6.9 mph - N/A   Unknown
4:00 AM 71.6 °F - 66.2 °F 83% 29.86 in 6.2 mi SE 4.6 mph - N/A   Unknown
4:30 AM 71.6 °F - 64.4 °F 78% 29.86 in 6.2 mi SSE 5.8 mph - N/A   Unknown
5:00 AM 71.6 °F - 64.4 °F 78% 29.86 in 6.2 mi South 5.8 mph - N/A   Unknown
5:30 AM 71.6 °F - 64.4 °F 78% 29.89 in 6.2 mi SSW 4.6 mph - N/A   Unknown
6:00 AM 71.6 °F - 64.4 °F 78% 29.89 in 6.2 mi SSW 4.6 mph - N/A   Unknown
6:30 AM 71.6 °F - 64.4 °F 78% 29.89 in 6.2 mi SSW 5.8 mph - N/A   Unknown
7:00 AM 73.4 °F - 64.4 °F 73% 29.89 in 6.2 mi SSW 4.6 mph - N/A   Unknown
7:30 AM 75.2 °F - 64.4 °F 69% 29.89 in 6.2 mi SW 3.5 mph - N/A   Unknown
8:00 AM 77.0 °F - 64.4 °F 65% 29.89 in 6.2 mi SSW 4.6 mph - N/A   Unknown
8:30 AM 77.0 °F - 64.4 °F 65% 29.92 in 6.2 mi SSE 3.5 mph - N/A   Unknown
9:00 AM 78.8 °F - 62.6 °F 57% 29.89 in 6.2 mi SSE 3.5 mph - N/A   Unknown
9:30 AM 78.8 °F - 62.6 °F 57% 29.89 in 6.2 mi SE 6.9 mph - N/A   Unknown
10:00 AM 80.6 °F 81.8 °F 62.6 °F 54% 29.89 in 6.2 mi ENE 6.9 mph - N/A   Unknown
10:30 AM 78.8 °F - 64.4 °F 61% 29.89 in 6.2 mi NNE 5.8 mph - N/A   Unknown
11:00 AM 80.6 °F 81.8 °F 62.6 °F 54% 29.89 in 6.2 mi East 4.6 mph - N/A   Unknown
11:30 AM 82.4 °F 83.9 °F 64.4 °F 54% 29.86 in 6.2 mi ESE 5.8 mph - N/A   Unknown
12:00 PM 82.4 °F 83.4 °F 62.6 °F 51% 29.83 in 6.2 mi ENE 8.1 mph - N/A   Unknown
12:30 PM 82.4 °F 83.4 °F 62.6 °F 51% 29.83 in 6.2 mi ENE 10.4 mph - N/A   Unknown
1:00 PM 84.2 °F 85.6 °F 64.4 °F 51% 29.83 in 6.2 mi East 9.2 mph - N/A   Unknown
1:30 PM 86.0 °F 87.3 °F 64.4 °F 48% 29.80 in 6.2 mi East 6.9 mph - N/A   Unknown
2:00 PM 86.0 °F 87.3 °F 64.4 °F 48% 29.80 in 6.2 mi NE 9.2 mph - N/A   Unknown
2:30 PM 84.2 °F 85.6 °F 64.4 °F 51% 29.77 in 6.2 mi ENE 12.7 mph - N/A   Unknown
3:00 PM 84.2 °F 85.0 °F 62.6 °F 48% 29.77 in 6.2 mi ENE 13.8 mph - N/A   Unknown
3:30 PM 84.2 °F 85.0 °F 62.6 °F 48% 29.77 in 6.2 mi ENE 12.7 mph - N/A   Unknown
4:00 PM 84.2 °F 85.0 °F 62.6 °F 48% 29.74 in 6.2 mi ENE 17.3 mph - N/A   Unknown
4:30 PM 82.4 °F 83.4 °F 62.6 °F 51% 29.77 in 6.2 mi East 17.3 mph - N/A   Unknown
5:00 PM 80.6 °F 81.8 °F 62.6 °F 54% 29.77 in 6.2 mi ENE 17.3 mph - N/A   Unknown
5:30 PM 78.8 °F - 62.6 °F 57% 29.77 in 6.2 mi ENE 19.6 mph - N/A   Unknown
6:00 PM 77.0 °F - 62.6 °F 61% 29.77 in 6.2 mi East 19.6 mph - N/A   Unknown
6:30 PM 77.0 °F - 62.6 °F 61% 29.80 in 6.2 mi East 17.3 mph - N/A   Unknown
7:00 PM 75.2 °F - 62.6 °F 65% 29.80 in 6.2 mi ENE 13.8 mph - N/A   Unknown
7:30 PM 75.2 °F - 64.4 °F 69% 29.83 in 6.2 mi ENE 15.0 mph - N/A   Unknown
8:00 PM 75.2 °F - 64.4 °F 69% 29.86 in 6.2 mi East 12.7 mph - N/A   Unknown
8:30 PM 73.4 °F - 64.4 °F 73% 29.86 in 6.2 mi East 15.0 mph - N/A   Unknown
9:00 PM 73.4 °F - 64.4 °F 73% 29.86 in 6.2 mi East 6.9 mph - N/A   Unknown
9:30 PM 73.4 °F - 64.4 °F 73% 29.86 in 6.2 mi East 5.8 mph - N/A   Unknown
10:00 PM 73.4 °F - 64.4 °F 73% 29.86 in 6.2 mi East 8.1 mph - N/A   Unknown
10:30 PM 73.4 °F - 64.4 °F 73% 29.86 in 6.2 mi East 9.2 mph - N/A   Unknown
11:00 PM 73.4 °F - 64.4 °F 73% 29.86 in 6.2 mi ESE 8.1 mph - N/A   Unknown
11:30 PM 73.4 °F - 64.4 °F 73% 29.86 in 6.2 mi East 5.8 mph - N/A   Unknown